Date String (YYYY-MM-DD hh:mm:ss) UTC,Instrument flags,Ambient pressure (hPa),Sample flow (lpm),Bypass flow (lpm),Sample temperature (°C),Ambient temperature (°C),ASC tube jacket temperature (°C),LED temperature (°C),Box temperature (°C),Sample RH (%),Span deviation,Mass concentration (μg/m³),Mass concentration (μg/m³),Mass concentration (μg/m³)
DateTimeUTC,F1_M11,P_M11,Q1_M11,Q2_M11,T1_M11,T2_M11,T3_M11,T4_M11,T5_M11,U1_M11,ZSPAN_M11,X2_M11,X0_M11,X1_M11
2021-11-16 10:00:00,,0819.6,5.01,0.00,29.9,29.0,00.0,39.0,31.6,08.8,0000.0,0000.38,0000.70,0000.23
2021-11-16 10:01:00,,0819.6,4.99,0.00,29.8,29.0,00.0,38.9,31.5,08.8,0000.0,0000.40,0000.73,0000.24
2021-11-16 10:02:00,,0819.7,5.01,0.00,29.8,29.0,00.0,38.9,31.5,08.8,0000.0,0000.42,0000.80,0000.24
2021-11-16 10:03:00,,0819.8,4.99,0.00,29.8,29.0,00.0,38.9,31.5,08.9,0000.0,0000.41,0000.81,0000.24
2021-11-16 10:04:00,,0819.8,4.99,0.00,29.8,28.9,00.0,38.9,31.4,08.8,0000.0,0000.40,0000.78,0000.24
2021-11-16 10:05:00,,0819.9,5.01,0.00,29.8,28.9,00.0,38.9,31.4,08.9,0000.0,0000.37,0000.65,0000.24
2021-11-16 10:06:00,,0819.7,5.00,0.00,29.8,28.9,00.0,38.9,31.4,08.8,0000.0,0000.36,0000.63,0000.24
2021-11-16 10:07:00,,0819.7,5.00,0.00,29.8,29.0,00.0,38.9,31.5,08.8,0000.0,0000.34,0000.58,0000.23
2021-11-16 10:08:00,,0819.5,5.00,0.00,29.8,29.0,00.0,38.9,31.5,08.8,0000.0,0000.33,0000.56,0000.22
2021-11-16 10:09:00,,0819.5,5.01,0.00,29.8,29.0,00.0,38.9,31.5,08.8,0000.0,0000.33,0000.56,0000.22
2021-11-16 10:10:00,,0819.4,4.98,0.00,29.8,29.0,00.0,38.9,31.5,08.8,0000.0,0000.35,0000.59,0000.22
2021-11-16 10:11:00,,0819.5,5.01,0.00,29.9,29.1,00.0,38.9,31.6,08.7,0000.0,0000.35,0000.59,0000.22
2021-11-16 10:12:00,,0819.6,5.01,0.00,29.9,29.1,00.0,38.9,31.6,08.7,0000.0,0000.32,0000.50,0000.22
2021-11-16 10:13:00,,0819.7,4.98,0.00,29.9,29.1,00.0,38.9,31.6,08.7,0000.0,0000.30,0000.52,0000.22
2021-11-16 10:14:00,,0819.7,5.01,0.00,29.9,29.1,00.0,38.9,31.6,08.7,0000.0,0000.30,0000.53,0000.22
2021-11-16 10:15:00,,0819.7,4.99,0.00,29.9,29.1,00.0,38.9,31.6,08.7,0000.0,0000.29,0000.51,0000.22
2021-11-16 10:16:00,,0819.7,5.00,0.00,29.9,29.1,00.0,38.9,31.6,08.6,0000.0,0000.30,0000.63,0000.22
2021-11-16 10:17:00,,0819.7,5.00,0.00,29.9,29.1,00.0,38.9,31.6,08.6,0000.0,0000.33,0000.76,0000.23
2021-11-16 10:18:00,,0819.6,5.00,0.00,29.9,29.1,00.0,38.9,31.6,08.6,0000.0,0000.36,0000.81,0000.24
2021-11-16 10:19:00,,0819.6,4.99,0.00,29.9,29.1,00.0,38.9,31.6,08.6,0000.0,0000.36,0000.82,0000.25
2021-11-16 10:20:00,,0819.5,5.00,0.00,29.9,29.1,00.0,38.9,31.6,08.6,0000.0,0000.36,0000.82,0000.25
2021-11-16 10:21:00,,0819.6,4.99,0.00,29.9,29.1,00.0,38.9,31.5,08.6,0000.0,0000.35,0001.37,0000.25
2021-11-16 10:22:00,,0819.9,5.00,0.00,29.9,29.0,00.0,38.9,31.5,08.6,0000.0,0000.34,0001.95,0000.25
2021-11-16 10:23:00,,0819.8,5.01,0.00,29.9,29.0,00.0,38.9,31.5,08.6,0000.0,0000.34,0001.95,0000.25
2021-11-16 10:24:00,,0819.4,5.01,0.00,29.9,29.0,00.0,38.9,31.5,08.5,0000.0,0000.33,0001.88,0000.25
2021-11-16 10:25:00,,0819.4,4.99,0.00,29.9,29.1,00.0,38.9,31.6,08.3,0000.0,0000.32,0001.84,0000.25
2021-11-16 10:26:00,,0819.4,5.00,0.00,29.9,29.1,00.0,38.9,31.6,08.4,0000.0,0000.34,0001.88,0000.25
2021-11-16 10:27:00,,0819.5,5.00,0.00,29.9,29.1,00.0,38.9,31.6,08.5,0000.0,0000.34,0001.80,0000.25
2021-11-16 10:28:00,,0819.4,5.00,0.00,29.8,29.1,00.0,38.9,31.6,08.5,0000.0,0000.34,0001.71,0000.25
2021-11-16 10:29:00,,0819.5,5.01,0.00,29.9,29.1,00.0,38.9,31.6,08.5,0000.0,0000.31,0001.66,0000.24
2021-11-16 10:30:00,,0819.3,5.00,0.00,29.9,29.1,00.0,38.9,31.6,08.4,0000.0,0000.31,0001.66,0000.24
2021-11-16 10:31:00,,0819.4,5.00,0.00,29.9,29.1,00.0,38.9,31.6,08.4,0000.0,0000.30,0001.64,0000.24
2021-11-16 10:32:00,,0819.3,5.00,0.00,29.9,29.1,00.0,38.9,31.6,08.4,0000.0,0000.30,0001.24,0000.24
2021-11-16 10:33:00,,0819.3,5.00,0.00,29.9,29.1,00.0,38.9,31.6,08.4,0000.0,0000.30,0000.48,0000.24
2021-11-16 10:34:00,,0819.3,5.00,0.00,29.9,29.2,00.0,38.9,31.6,08.4,0000.0,0000.31,0000.51,0000.24
2021-11-16 10:35:00,,0819.1,4.99,0.00,29.9,29.2,00.0,38.9,31.6,08.4,0000.0,0000.34,0000.54,0000.24
2021-11-16 10:36:00,,0819.1,4.99,0.00,29.9,29.2,00.0,38.9,31.6,08.4,0000.0,0000.33,0000.75,0000.24
2021-11-16 10:37:00,,0819.0,5.00,0.00,29.9,29.1,00.0,38.9,31.6,08.5,0000.0,0000.39,0001.59,0000.24
2021-11-16 10:38:00,,0819.0,5.00,0.00,29.9,29.1,00.0,38.9,31.6,08.5,0000.0,0000.41,0002.11,0000.24
2021-11-16 10:39:00,,0819.1,5.01,0.00,29.9,29.1,00.0,38.9,31.6,08.5,0000.0,0000.43,0002.70,0000.25
2021-11-16 10:40:00,,0819.2,4.99,0.00,29.9,29.1,00.0,38.9,31.6,08.5,0000.0,0000.45,0002.81,0000.24
2021-11-16 10:41:00,,0819.3,4.99,0.00,29.9,29.1,00.0,38.9,31.6,08.6,0000.0,0000.47,0002.88,0000.25
2021-11-16 10:42:00,,0819.3,5.02,0.00,29.9,29.1,00.0,39.0,31.6,08.5,0000.0,0000.49,0003.02,0000.25
2021-11-16 10:43:00,,0819.3,4.99,0.00,29.9,29.1,00.0,38.9,31.5,08.5,0000.0,0000.53,0003.27,0000.25
2021-11-16 10:44:00,,0819.2,5.00,0.00,29.9,29.0,00.0,38.9,31.5,08.4,0000.0,0000.54,0003.34,0000.25
2021-11-16 10:45:00,,0819.2,5.01,0.00,29.8,29.0,00.0,38.9,31.5,08.4,0000.0,0000.55,0003.35,0000.25
2021-11-16 10:46:00,,0819.2,5.00,0.00,29.8,29.0,00.0,38.9,31.5,08.4,0000.0,0000.54,0003.33,0000.25
2021-11-16 10:47:00,,0819.3,5.00,0.00,29.8,29.0,00.0,38.9,31.5,08.4,0000.0,0000.53,0003.15,0000.25
2021-11-16 10:48:00,,0819.1,5.01,0.00,29.8,29.0,00.0,38.9,31.5,08.4,0000.0,0000.47,0002.29,0000.24
2021-11-16 10:49:00,,0819.2,5.00,0.00,29.8,29.0,00.0,38.9,31.5,08.4,0000.0,0000.44,0001.68,0000.24
2021-11-16 10:50:00,,0819.3,5.01,0.00,29.8,29.0,00.0,38.9,31.5,08.4,0000.0,0000.42,0001.07,0000.23
2021-11-16 10:51:00,,0819.3,4.98,0.00,29.8,29.0,00.0,38.9,31.5,08.4,0000.0,0000.40,0000.96,0000.23
2021-11-16 10:52:00,,0819.3,5.00,0.00,29.8,29.0,00.0,38.9,31.5,08.4,0000.0,0000.40,0000.97,0000.23
2021-11-16 10:53:00,,0819.3,5.00,0.00,29.8,29.0,00.0,38.9,31.5,08.5,0000.0,0000.41,0000.94,0000.23
2021-11-16 10:54:00,,0819.4,5.00,0.00,29.8,29.0,00.0,38.9,31.5,08.5,0000.0,0000.37,0000.71,0000.23
2021-11-16 10:55:00,,0819.3,5.01,0.00,29.8,29.0,00.0,38.9,31.5,08.5,0000.0,0000.35,0000.62,0000.24
2021-11-16 10:56:00,,0819.1,5.00,0.00,29.8,29.0,00.0,38.9,31.5,08.6,0000.0,0000.34,0000.60,0000.24
2021-11-16 10:57:00,,0819.1,5.00,0.00,29.8,29.0,00.0,38.9,31.5,08.7,0000.0,0000.34,0000.61,0000.24
2021-11-16 10:58:00,,0818.9,4.99,0.00,29.8,29.0,00.0,38.9,31.5,08.7,0000.0,0000.35,0000.62,0000.25
2021-11-16 10:59:00,,0818.9,5.01,0.00,29.8,29.0,00.0,38.9,31.5,08.7,0000.0,0000.38,0000.76,0000.25
